Weather History for KITH - August, 2012

Change the Weather History Date:

Monday, August 20, 2012

  Actual Average Record
Temperature  
Mean Temperature 62 °F -  
Max Temperature 72 °F 77 °F 94 °F (1937)
Min Temperature 51 °F 53 °F 40 °F (1944)
Degree Days  
Heating Degree Days 4    
Growing Degree Days 12 (Base 50)    
Moisture  
Dew Point 53 °F    
Average Humidity 78    
Maximum Humidity 100    
Minimum Humidity 46    
Precipitation  
Precipitation 0.00 in - - ()
Sea Level Pressure  
Sea Level Pressure 29.93 in    
Wind  
Wind Speed 3 mph (NE)    
Max Wind Speed 8 mph    
Max Gust Speed -    
Visibility 10 miles    
Events      
Averages and records for this station are not official NWS values.
T = Trace of Precipitation, MM = Missing Value Source: NWS Daily Summary

Daily Weather History Graph

Daily Weather History Graph

Search for Another Location

Airport or City:

Trip Planner

Search our weather history database for the weather conditions in past years. The results will help you decide how hot, cold, wet, or windy it might be!

Date:

Astronomy

Aug. 20, 2012 Rise Set
Actual Time 6:18 AM EDT 7:58 PM EDT
Civil Twilight 5:48 AM EDT 8:28 PM EDT
Nautical Twilight 5:12 AM EDT 9:04 PM EDT
Astronomical Twilight 4:33 AM EDT 9:43 PM EDT
Moon 9:44 AM EDT (8/20) 9:14 PM EDT (8/20)
Length of Visible Light 14h 39m
Length of Day
13h 40m
Waxing Crescent, 11% of the Moon is Illuminated
Aug 20
Waxing Crescent
Aug 24
First Quarter
Aug 31
Full
Sep 8
Last Quarter
Sep 15
New

Hourly Weather History & Observations

Time (EDT) Temp. Dew Point Humidity Pressure Visibility Wind Dir Wind Speed Gust Speed Precip Events Conditions
12:56 AM 56.8 °F 52.0 °F 84% 29.94 in 10.0 mi ESE 3.5 mph - N/A   Clear
1:56 AM 54.9 °F 52.0 °F 90% 29.94 in 10.0 mi Calm Calm - N/A   Clear
2:56 AM 54.0 °F 52.0 °F 93% 29.92 in 10.0 mi East 3.5 mph - N/A   Partly Cloudy
3:56 AM 52.9 °F 52.0 °F 97% 29.90 in 10.0 mi East 3.5 mph - N/A   Clear
4:56 AM 52.0 °F 50.9 °F 96% 29.91 in 10.0 mi Calm Calm - N/A   Clear
5:56 AM 52.0 °F 50.9 °F 96% 29.91 in 10.0 mi Calm Calm - N/A   Clear
6:16 AM 51.8 °F 51.8 °F 100% 29.91 in 9.0 mi East 3.5 mph - N/A   Clear
6:56 AM 52.0 °F 52.0 °F 100% 29.91 in 10.0 mi ENE 4.6 mph - N/A   Clear
7:56 AM 57.9 °F 54.9 °F 90% 29.93 in 10.0 mi East 4.6 mph - N/A   Clear
8:56 AM 64.9 °F 56.8 °F 75% 29.93 in 10.0 mi Calm Calm - N/A   Clear
9:56 AM 70.0 °F 55.9 °F 61% 29.93 in 10.0 mi West 4.6 mph - N/A   Partly Cloudy
10:56 AM 70.9 °F 52.9 °F 53% 29.93 in 10.0 mi Calm Calm - N/A   Mostly Cloudy
11:56 AM 70.0 °F 52.9 °F 55% 29.93 in 10.0 mi Calm Calm - N/A   Mostly Cloudy
12:56 PM 68.9 °F 55.9 °F 63% 29.93 in 10.0 mi Calm Calm - N/A   Mostly Cloudy
1:56 PM 72.0 °F 55.9 °F 57% 29.91 in 10.0 mi North 3.5 mph - N/A   Mostly Cloudy
2:56 PM 72.9 °F 50.9 °F 46% 29.90 in 10.0 mi Calm Calm - N/A   Mostly Cloudy
3:56 PM 72.9 °F 52.0 °F 48% 29.89 in 10.0 mi WNW 3.5 mph - N/A   Mostly Cloudy
4:56 PM 66.9 °F 55.9 °F 68% 29.91 in 10.0 mi NNW 8.1 mph - N/A   Mostly Cloudy
5:56 PM 68.0 °F 54.9 °F 63% 29.91 in 10.0 mi North 8.1 mph - N/A   Mostly Cloudy
6:56 PM 66.9 °F 54.0 °F 63% 29.94 in 10.0 mi NNW 3.5 mph - N/A   Mostly Cloudy
7:56 PM 61.9 °F 52.9 °F 72% 29.95 in 10.0 mi North 3.5 mph - N/A   Partly Cloudy
8:56 PM 56.8 °F 54.9 °F 93% 29.96 in 10.0 mi NE 3.5 mph - N/A   Partly Cloudy
9:56 PM 55.9 °F 54.9 °F 96% 29.98 in 10.0 mi Calm Calm - N/A   Clear
10:56 PM 54.9 °F 54.0 °F 97% 29.98 in 10.0 mi Calm Calm - N/A   Clear
11:56 PM 52.9 °F 52.0 °F 97% 29.99 in 8.0 mi ENE 3.5 mph - N/A   Clear